Weather History for Kelso-Longview, WA

Change the Weather History Date:

Thursday, August 14, 2014

  Actual Average Record
Temperature  
Mean Temperature 68 °F -  
Max Temperature 77 °F 75 °F 100 °F (2010)
Min Temperature 59 °F 53 °F 51 °F (2007)
Cooling Degree Days 3    
Growing Degree Days 18 (Base 50)    
Moisture  
Dew Point 57 °F    
Average Humidity 72    
Maximum Humidity 88    
Minimum Humidity 50    
Precipitation  
Precipitation 0.00 in - - ()
Sea Level Pressure  
Sea Level Pressure 30.02 in    
Wind  
Wind Speed 1 mph (NNE)    
Max Wind Speed 9 mph    
Max Gust Speed -    
Visibility 10 miles    
Events      
Averages and records for this station are not official NWS values.
T = Trace of Precipitation, MM = Missing Value Source: NWS Daily Summary

Daily Weather History Graph

Daily Weather History Graph

Search for Another Location

Airport:

Trip Planner

Search our weather history database for the weather conditions in past years. The results will help you decide how hot, cold, wet, or windy it might be!

Date:

Astronomy

Aug. 14, 2014 Rise Set
Actual Time 6:09 AM PDT 8:21 PM PDT
Civil Twilight 5:36 AM PDT 8:54 PM PDT
Nautical Twilight 4:56 AM PDT 9:35 PM PDT
Astronomical Twilight 4:10 AM PDT 10:20 PM PDT
Moon 10:28 PM PDT (8/14) 11:11 AM PDT (8/14)
Length of Visible Light 15h 17m
Length of Day
14h 12m
Waning Gibbous, 78% of the Moon is Illuminated
Aug 14
Waning Gibbous
Aug 17
Last Quarter
Aug 25
New
Sep 2
First Quarter
Sep 8
Full

Hourly Weather History & Observations

Time (PDT) Temp. Dew Point Humidity Pressure Visibility Wind Dir Wind Speed Gust Speed Precip Events Conditions
12:15 AM 60.8 °F 55.4 °F 82% 30.05 in 10.0 mi Calm Calm - N/A   Mostly Cloudy
12:35 AM 60.8 °F 55.4 °F 82% 30.04 in 10.0 mi Calm Calm - N/A   Partly Cloudy
12:55 AM 60.8 °F 55.4 °F 82% 30.04 in 10.0 mi Calm Calm - N/A   Clear
1:15 AM 59.0 °F 55.4 °F 88% 30.04 in 10.0 mi Calm Calm - N/A   Clear
1:35 AM 59.0 °F 55.4 °F 88% 30.04 in 10.0 mi Calm Calm - N/A   Clear
1:55 AM 59.0 °F 55.4 °F 88% 30.03 in 10.0 mi Calm Calm - N/A   Mostly Cloudy
2:15 AM 59.0 °F 53.6 °F 82% 30.04 in 10.0 mi Calm Calm - N/A   Overcast
2:35 AM 59.0 °F 55.4 °F 88% 30.04 in 10.0 mi Calm Calm - N/A   Overcast
2:55 AM 59.0 °F 55.4 °F 88% 30.04 in 10.0 mi Calm Calm - N/A   Overcast
3:15 AM 59.0 °F 55.4 °F 88% 30.04 in 10.0 mi Calm Calm - N/A   Overcast
3:35 AM 59.0 °F 55.4 °F 88% 30.04 in 10.0 mi Calm Calm - N/A   Overcast
3:55 AM 59.0 °F 55.4 °F 88% 30.04 in 10.0 mi Calm Calm - N/A   Overcast
4:15 AM 59.0 °F 53.6 °F 82% 30.03 in 10.0 mi Calm Calm - N/A   Overcast
4:35 AM 59.0 °F 53.6 °F 82% 30.04 in 10.0 mi Calm Calm - N/A   Overcast
4:55 AM 60.8 °F 55.4 °F 82% 30.04 in 10.0 mi Calm Calm - N/A   Overcast
5:15 AM 60.8 °F 55.4 °F 82% 30.04 in 10.0 mi ESE 3.5 mph - N/A   Overcast
5:35 AM 60.8 °F 55.4 °F 82% 30.04 in 10.0 mi Calm Calm - N/A   Overcast
5:55 AM 60.8 °F 55.4 °F 82% 30.05 in 10.0 mi Calm Calm - N/A   Overcast
6:15 AM 60.8 °F 55.4 °F 82% 30.05 in 10.0 mi Calm Calm - N/A   Overcast
6:35 AM 60.8 °F 55.4 °F 82% 30.05 in 10.0 mi Calm Calm - N/A   Overcast
6:55 AM 60.8 °F 55.4 °F 82% 30.06 in 10.0 mi Calm Calm - N/A   Overcast
7:15 AM 60.8 °F 55.4 °F 82% 30.06 in 10.0 mi Calm Calm - N/A   Overcast
7:35 AM 60.8 °F 55.4 °F 82% 30.05 in 10.0 mi Calm Calm - N/A   Overcast
7:55 AM 60.8 °F 55.4 °F 82% 30.05 in 10.0 mi Calm Calm - N/A   Overcast
8:15 AM 62.6 °F 55.4 °F 77% 30.05 in 10.0 mi Calm Calm - N/A   Overcast
8:35 AM 62.6 °F 55.4 °F 77% 30.05 in 10.0 mi Calm Calm - N/A   Overcast
8:55 AM 62.6 °F 55.4 °F 77% 30.06 in 10.0 mi Calm Calm - N/A   Overcast
9:15 AM 62.6 °F 55.4 °F 77% 30.06 in 10.0 mi North 5.8 mph - N/A   Overcast
9:35 AM 62.6 °F 55.4 °F 77% 30.06 in 10.0 mi NNW 3.5 mph - N/A   Overcast
9:55 AM 64.4 °F 55.4 °F 73% 30.06 in 10.0 mi Calm Calm - N/A   Overcast
10:15 AM 66.2 °F 57.2 °F 73% 30.05 in 10.0 mi Calm Calm - N/A   Mostly Cloudy
10:35 AM 68.0 °F 57.2 °F 68% 30.04 in 10.0 mi Calm Calm - N/A   Partly Cloudy
10:55 AM 69.8 °F 57.2 °F 64% 30.03 in 10.0 mi SSE 3.5 mph - N/A   Clear
11:15 AM 69.8 °F 57.2 °F 64% 30.03 in 10.0 mi SE 4.6 mph - N/A   Clear
11:35 AM 71.6 °F 57.2 °F 60% 30.03 in 10.0 mi SE 5.8 mph - N/A   Clear
11:55 AM 71.6 °F 57.2 °F 60% 30.03 in 10.0 mi SSE 4.6 mph - N/A   Scattered Clouds
12:15 PM 71.6 °F 57.2 °F 60% 30.03 in 10.0 mi ESE 4.6 mph - N/A   Overcast
12:35 PM 71.6 °F 57.2 °F 60% 30.02 in 10.0 mi Calm Calm - N/A   Overcast
12:55 PM 73.4 °F 57.2 °F 57% 30.02 in 10.0 mi Calm Calm - N/A   Overcast
1:15 PM 73.4 °F 55.4 °F 53% 30.02 in 10.0 mi Calm Calm - N/A   Overcast
1:35 PM 75.2 °F 55.4 °F 50% 30.01 in 10.0 mi East 3.5 mph - N/A   Overcast
1:55 PM 73.4 °F 55.4 °F 53% 30.01 in 10.0 mi NNE 3.5 mph - N/A   Overcast
2:15 PM 75.2 °F 55.4 °F 50% 30.01 in 10.0 mi Calm Calm - N/A   Overcast
2:35 PM 75.2 °F 55.4 °F 50% 30.00 in 10.0 mi Calm Calm - N/A   Mostly Cloudy
2:55 PM 75.2 °F 57.2 °F 53% 30.00 in 10.0 mi Calm Calm - N/A   Mostly Cloudy
3:15 PM 75.2 °F 57.2 °F 53% 30.00 in 10.0 mi North 4.6 mph - N/A   Overcast
3:35 PM 75.2 °F 57.2 °F 53% 29.99 in 10.0 mi Calm Calm - N/A   Mostly Cloudy
3:55 PM 75.2 °F 55.4 °F 50% 29.99 in 10.0 mi North 4.6 mph - N/A   Mostly Cloudy
4:15 PM 77.0 °F 57.2 °F 50% 29.99 in 10.0 mi Calm Calm - N/A   Overcast
4:35 PM 75.2 °F 57.2 °F 53% 29.99 in 10.0 mi NNE 4.6 mph - N/A   Overcast
4:55 PM 75.2 °F 55.4 °F 50% 29.99 in 10.0 mi NNE 4.6 mph - N/A   Overcast
5:15 PM 73.4 °F 57.2 °F 57% 30.00 in 10.0 mi North 9.2 mph - N/A   Overcast
5:35 PM 73.4 °F 57.2 °F 57% 30.00 in 10.0 mi North 4.6 mph - N/A   Overcast
5:55 PM 73.4 °F 57.2 °F 57% 29.99 in 10.0 mi North 6.9 mph - N/A   Mostly Cloudy
6:15 PM 73.4 °F 57.2 °F 57% 29.99 in 10.0 mi North 8.1 mph - N/A   Partly Cloudy
6:35 PM 71.6 °F 57.2 °F 60% 29.99 in 10.0 mi North 6.9 mph - N/A   Clear
6:55 PM 71.6 °F 57.2 °F 60% 29.99 in 10.0 mi Calm Calm - N/A   Clear
7:15 PM 71.6 °F 59.0 °F 64% 29.99 in 10.0 mi Calm Calm - N/A   Clear
7:35 PM 69.8 °F 60.8 °F 73% 29.99 in 10.0 mi WNW 3.5 mph - N/A   Clear
7:55 PM 69.8 °F 60.8 °F 73% 30.00 in 10.0 mi Calm Calm - N/A   Clear
8:15 PM 69.8 °F 60.8 °F 73% 30.00 in 10.0 mi Calm Calm - N/A   Clear
8:35 PM 69.8 °F 60.8 °F 73% 30.00 in 10.0 mi Calm Calm - N/A   Mostly Cloudy
8:55 PM 68.0 °F 60.8 °F 78% 30.00 in 10.0 mi Calm Calm - N/A   Mostly Cloudy
9:15 PM 68.0 °F 60.8 °F 78% 30.01 in 10.0 mi Calm Calm - N/A   Overcast
9:35 PM 68.0 °F 60.8 °F 78% 30.01 in 10.0 mi Calm Calm - N/A   Overcast
9:55 PM 66.2 °F 60.8 °F 83% 30.01 in 10.0 mi Calm Calm - N/A   Partly Cloudy
10:15 PM 66.2 °F 60.8 °F 83% 30.01 in 10.0 mi Calm Calm - N/A   Clear
10:35 PM 66.2 °F 60.8 °F 83% 30.01 in 10.0 mi Calm Calm - N/A   Mostly Cloudy
10:55 PM 66.2 °F 60.8 °F 83% 30.01 in 10.0 mi Calm Calm - N/A   Overcast
11:15 PM 66.2 °F 60.8 °F 83% 30.01 in 10.0 mi Calm Calm - N/A   Overcast
11:35 PM 66.2 °F 60.8 °F 83% 30.01 in 10.0 mi NNW 3.5 mph - N/A   Overcast
11:55 PM 66.2 °F 60.8 °F 83% 30.01 in 10.0 mi Calm Calm - N/A   Mostly Cloudy